| time (UTC) | temp C | wind direction | speed KPH | gust KPH | rain 1hr cm | rain 24hr cm | rain mn cm | humidity % | barometer mb |
| 20260504215016 | 16 | 0.0 | 0.0 | 0.00 | 0.00 | 0.00 | 73 | 1017.0 | |
| 20260504214016 | 16 | 0.0 | 0.0 | 0.00 | 0.00 | 0.00 | 73 | 1017.1 | |
| 20260504213016 | 16 | 0.0 | 0.0 | 0.00 | 0.00 | 0.00 | 72 | 1016.9 | |
| 20260504212016 | 16 | 0.0 | 0.0 | 0.00 | 0.00 | 0.00 | 71 | 1017.1 | |
| 20260504211016 | 17 | 0.0 | 1.6 | 0.00 | 0.00 | 0.00 | 70 | 1017.2 | |
| 20260504210016 | 17 | 0.0 | 0.0 | 0.00 | 0.00 | 0.00 | 69 | 1017.2 | |
| 20260504205056 | 17 | 0.0 | 0.0 | 0.00 | 0.00 | 0.00 | 69 | 1017.2 | |
| 20260504204016 | 17 | 0.0 | 0.0 | 0.00 | 0.00 | 0.00 | 68 | 1017.3 | |
| 20260504203016 | 17 | 0.0 | 0.0 | 0.00 | 0.00 | 0.00 | 67 | 1017.3 | |
| 20260504202016 | 18 | 0.0 | 0.0 | 0.00 | 0.00 | 0.00 | 66 | 1017.2 | |
| 20260504201016 | 18 | 0.0 | 0.0 | 0.00 | 0.00 | 0.00 | 66 | 1017.2 | |
| 20260504200016 | 18 | 0.0 | 0.0 | 0.00 | 0.00 | 0.00 | 65 | 1017.1 | |
| 20260504195021 | 18 | 0.0 | 0.0 | 0.00 | 0.00 | 0.00 | 65 | 1017.1 | |
| 20260504194016 | 18 | 0.0 | 0.0 | 0.00 | 0.00 | 0.00 | 64 | 1017.1 | |
| 20260504193025 | 18 | 0.0 | 0.0 | 0.00 | 0.00 | 0.00 | 62 | 1017.0 | |
| 20260504192056 | 18 | 0.0 | 0.0 | 0.00 | 0.00 | 0.00 | 61 | 1017.0 | |
| 20260504191015 | 19 | 0.0 | 0.0 | 0.00 | 0.00 | 0.00 | 60 | 1017.0 | |
| 20260504190016 | 19 | 0.0 | 0.0 | 0.00 | 0.00 | 0.00 | 60 | 1016.7 | |
| 20260504185016 | 19 | 0.0 | 0.0 | 0.00 | 0.00 | 0.00 | 61 | 1016.6 | |
| 20260504184016 | 20 | 0.0 | 0.0 | 0.00 | 0.00 | 0.00 | 61 | 1016.6 | |
| 20260504183056 | 20 | 0.0 | 0.0 | 0.00 | 0.00 | 0.00 | 60 | 1016.4 | |
| 20260504182016 | 20 | 0.0 | 0.0 | 0.00 | 0.00 | 0.00 | 59 | 1016.5 | |
| 20260504181016 | 21 | 0.0 | 0.0 | 0.00 | 0.00 | 0.00 | 57 | 1016.3 | |
| 20260504180016 | 21 | 0.0 | 3.2 | 0.00 | 0.00 | 0.00 | 56 | 1016.2 | |
| 20260504175016 | 22 | 0.0 | 0.0 | 0.00 | 0.00 | 0.00 | 54 | 1016.2 | |
| 20260504174015 | 23 | 225 | 1.6 | 3.2 | 0.00 | 0.00 | 0.00 | 52 | 1016.0 |
| 20260504173056 | 23 | 0.0 | 3.2 | 0.00 | 0.00 | 0.00 | 52 | 1016.0 | |
| 20260504172015 | 23 | 203 | 3.2 | 6.4 | 0.00 | 0.00 | 0.00 | 52 | 1016.0 |
| 20260504171016 | 24 | 248 | 1.6 | 4.8 | 0.00 | 0.00 | 0.00 | 53 | 1016.0 |
| 20260504151015 | 25 | 0.0 | 1.6 | 0.00 | 0.00 | 0.00 | 51 | 1016.2 | |
| 20260504141016 | 26 | 0.0 | 1.6 | 0.00 | 0.00 | 0.00 | 49 | 1016.4 | |
| 20260504081015 | 21 | 0.0 | 1.6 | 0.00 | 0.00 | 0.00 | 53 | 1018.5 | |
| 20260504050017 | 12 | 0.0 | 1.6 | 0.00 | 0.00 | 0.00 | 78 | 1017.6 | |
| 20260504045017 | 12 | 0.0 | 1.6 | 0.00 | 0.00 | 0.00 | 79 | 1017.6 | |
| 20260504044017 | 12 | 0.0 | 0.0 | 0.00 | 0.00 | 0.00 | 79 | 1017.6 | |
| 20260504043017 | 12 | 0.0 | 1.6 | 0.00 | 0.00 | 0.00 | 79 | 1017.4 | |
| 20260504042017 | 12 | 0.0 | 0.0 | 0.00 | 0.00 | 0.00 | 79 | 1017.4 | |
| 20260504041017 | 12 | 0.0 | 0.0 | 0.00 | 0.00 | 0.00 | 79 | 1017.4 | |
| 20260504040057 | 12 | 0.0 | 0.0 | 0.00 | 0.00 | 0.00 | 79 | 1017.3 | |
| 20260504035017 | 12 | 0.0 | 0.0 | 0.00 | 0.00 | 0.00 | 78 | 1017.4 | |
| 20260504034114 | 12 | 0.0 | 0.0 | 0.00 | 0.00 | 0.00 | 78 | 1017.4 | |
| 20260504033057 | 12 | 0.0 | 0.0 | 0.00 | 0.00 | 0.00 | 77 | 1017.5 | |
| 20260504031017 | 12 | 0.0 | 0.0 | 0.00 | 0.00 | 0.00 | 76 | 1017.4 | |
| 20260504030017 | 13 | 0.0 | 0.0 | 0.00 | 0.00 | 0.00 | 75 | 1017.4 | |
| 20260504025017 | 13 | 0.0 | 0.0 | 0.00 | 0.00 | 0.00 | 75 | 1017.5 | |
| 20260504024057 | 13 | 0.0 | 0.0 | 0.00 | 0.00 | 0.00 | 75 | 1017.4 | |
| 20260504023017 | 13 | 0.0 | 0.0 | 0.00 | 0.00 | 0.00 | 75 | 1017.6 | |
| 20260504022017 | 13 | 0.0 | 0.0 | 0.00 | 0.00 | 0.00 | 75 | 1017.5 | |
| 20260504021017 | 13 | 0.0 | 0.0 | 0.00 | 0.00 | 0.00 | 75 | 1017.5 | |
| 20260504020017 | 13 | 0.0 | 0.0 | 0.00 | 0.00 | 0.00 | 75 | 1017.5 | |
| 20260504015017 | 13 | 0.0 | 0.0 | 0.00 | 0.00 | 0.00 | 74 | 1017.6 | |
| 20260504014017 | 13 | 0.0 | 0.0 | 0.00 | 0.00 | 0.00 | 73 | 1017.6 | |
| 20260504013017 | 13 | 0.0 | 0.0 | 0.00 | 0.00 | 0.00 | 73 | 1017.6 | |
| 20260504012017 | 14 | 0.0 | 0.0 | 0.00 | 0.00 | 0.00 | 72 | 1017.6 | |
| 20260504011057 | 14 | 0.0 | 0.0 | 0.00 | 0.00 | 0.00 | 72 | 1017.8 | |
| 20260504010017 | 14 | 0.0 | 0.0 | 0.00 | 0.00 | 0.00 | 71 | 1017.8 | |
| 20260504004057 | 14 | 0.0 | 0.0 | 0.00 | 0.00 | 0.00 | 70 | 1017.7 | |
| 20260504003017 | 14 | 0.0 | 0.0 | 0.00 | 0.00 | 0.00 | 70 | 1017.7 | |
| 20260504002057 | 14 | 0.0 | 0.0 | 0.00 | 0.00 | 0.00 | 70 | 1017.8 | |
| 20260504001017 | 15 | 0.0 | 0.0 | 0.00 | 0.00 | 0.00 | 70 | 1017.9 | |
| 20260504000017 | 15 | 0.0 | 0.0 | 0.00 | 0.00 | 0.00 | 70 | 1017.9 | |
| 20260503235017 | 15 | 0.0 | 0.0 | 0.00 | 0.00 | 0.00 | 69 | 1017.8 | |
| 20260503234017 | 15 | 0.0 | 0.0 | 0.00 | 0.00 | 0.00 | 69 | 1017.8 | |
| 20260503233017 | 15 | 0.0 | 0.0 | 0.00 | 0.00 | 0.00 | 69 | 1017.8 | |
| 20260503232017 | 15 | 0.0 | 0.0 | 0.00 | 0.00 | 0.00 | 69 | 1017.8 | |
| 20260503231017 | 15 | 0.0 | 0.0 | 0.00 | 0.00 | 0.00 | 69 | 1017.9 | |
| 20260503230017 | 15 | 0.0 | 0.0 | 0.00 | 0.00 | 0.00 | 69 | 1017.9 | |
| 20260503225017 | 15 | 0.0 | 0.0 | 0.00 | 0.00 | 0.00 | 68 | 1018.0 | |
| 20260503224057 | 15 | 0.0 | 0.0 | 0.00 | 0.00 | 0.00 | 68 | 1017.9 | |
| 20260503223017 | 15 | 0.0 | 0.0 | 0.00 | 0.00 | 0.00 | 68 | 1018.0 | |
| 20260503222057 | 15 | 0.0 | 0.0 | 0.00 | 0.00 | 0.00 | 68 | 1018.0 | |
| 20260503221057 | 15 | 0.0 | 0.0 | 0.00 | 0.00 | 0.00 | 66 | 1017.9 | |
| 20260503220017 | 15 | 0.0 | 0.0 | 0.00 | 0.00 | 0.00 | 66 | 1017.8 |